Location: Kapuskasing
(49.3803°N, 82.4001°W)
Time: 11:28:31
(UTC-04:00)

Envisat - Pass Details

Date: 13 March 2026
Orbit: 761 x 762 km, 98.4° (Epoch: 11 April)

Event Time Altitude Azimuth Distance (km) Brightness Sun altitude
Rises 04:59:29 0° 9° (N) 3,237 6.8 -27.1°
Reaches altitude 10° 05:01:52 10° 3° (N) 2,306 5.9 -26.7°
Enters shadow 05:05:35 39° 326° (NNW) 1,146 3.8 -26.2°
